[[{"header":{"parameterUnit":"m.s-1","parameterCategory":1,"la1":30.2991,"la2":30.254,"lo1":-89.0895,"lo2":-89.0444,"dy":0.0017,"dx":0.0017,"nx":28,"ny":28,"refTime":"2026-02-18T03:00:00:Z","depth":0,"parameterNumber":2,"parameterNumberName":"U-component_of_WINDS"},"data":[0,0,0,0,0,0,0,0,0,0,0,0,0,0,0,0,0,0,0,0,0,0,0,0,0,0,0,0,0,0,0,0,0,0,0,0,0,0,0,0,0,0,0,0,0,0,0,0,0,0,0,0,0,0,0,0,0,0,0.0277,0.0277,0,0.0256,0.0256,0.0255,0.0222,0.0222,0.0221,0.022,0.02,0.02,0.02,0,0,0,0,0,0,0,0,0,0,0,0,0,0.0291,0.0291,0.0278,0.0277,0.0277,0.0256,0.0256,0.0255,0.0222,0.0222,0.0221,0.022,0.02,0.02,0.02,0,0,0,0,0,0,0,0,0,0,0,0,0,0.0279,0.0291,0.0278,0.0258,0.0256,0.0256,0.0256,0.0255,0.0222,0.0221,0.0221,0.022,0.02,0.02,0.02,0.0218,0,0,0.02,0.02,0,0,0,0,0,0,0,0,0.028,0.0279,0.0261,0.0259,0.0257,0.0241,0.0253,0.0243,0.0223,0.0235,0.022,0.0219,0.0214,0.0213,0.0211,0.0217,0.0216,0.02,0.02,0.02,0.02,0,0,0,0,0,0,0,0.0281,0.028,0.0269,0.0261,0.0258,0.0251,0.0248,0.0251,0.023,0.0234,0.0232,0.0229,0.0213,0.0211,0.021,0.0215,0.02,0.02,0.02,0.02,0.0235,0.0236,0,0,0,0,0,0,0.0284,0.028,0.027,0.0268,0.0266,0.0251,0.0248,0.0247,0.023,0.0226,0.023,0.0228,0.0211,0.021,0.0209,0.0229,0.02,0.02,0.02,0.0234,0.0235,0.0236,0,0,0,0,0,0,0.0285,0.0284,0.027,0.0274,0.0271,0.0252,0.0251,0.0247,0.0245,0.0227,0.0223,0.0232,0.0211,0.0209,0.0216,0.0228,0.02,0.02,0.0233,0.0234,0.0235,0.027,0,0,0,0,0,0,0.0285,0.0284,0.0291,0.0274,0.0271,0.0277,0.0252,0.0247,0.0245,0.0242,0.0228,0.0224,0.021,0.0216,0.0216,0.0228,0.02,0.0232,0.0233,0.0235,0.0267,0.0272,0.0276,0,0,0,0,0,0.0286,0.0301,0.0291,0.029,0.0279,0.0278,0.0276,0.0259,0.0246,0.0252,0.0241,0.0225,0.0227,0.0217,0.0216,0.0229,0.0231,0.0233,0.0235,0.0265,0.0271,0.0276,0,0,0,0,0,0,0.0321,0.0299,0.0287,0.0298,0.029,0.0272,0.028,0.0266,0.0262,0.0259,0.0238,0.0235,0.0244,0.0237,0.0226,0.0245,0.0226,0.0228,0.025,0.0255,0.0259,0.0261,0.02,0,0,0,0,0,0.0329,0.033,0.0311,0.0322,0.0319,0.03,0.0299,0.0286,0.0277,0.0274,0.0263,0.0255,0.0254,0.0254,0.0252,0.0266,0.0262,0.0274,0.0278,0.0282,0.0284,0.0291,0.0296,0.0243,0.0243,0.0243,0,0,0.0348,0.0336,0.0338,0.0329,0.0321,0.0323,0.0298,0.03,0.0301,0.0275,0.028,0.0271,0.0262,0.0272,0.0276,0.0266,0.0298,0.0285,0.0288,0.0288,0.0294,0.0299,0.0304,0.0244,0.0244,0.0244,0,0,0.0382,0.0373,0.0381,0.0374,0.0362,0.035,0.0352,0.0336,0.0329,0.0334,0.0314,0.0315,0.0313,0.0307,0.0304,0.0335,0.0321,0.0335,0.0358,0.0365,0.037,0.0373,0.0385,0.0389,0.0337,0.0337,0.0337,0,0.0407,0.0408,0.0387,0.0391,0.0388,0.0363,0.0371,0.0365,0.0354,0.0353,0.0342,0.0339,0.033,0.0339,0.0347,0.0344,0.0347,0.0337,0.0371,0.0374,0.0377,0.0388,0.0393,0.0339,0.0339,0.0339,0.0339,0,0.0439,0.044,0.0448,0.0437,0.0434,0.044,0.0421,0.0421,0.0408,0.0397,0.0402,0.0391,0.0387,0.0387,0.0375,0.0394,0.0389,0.0374,0.0355,0.0385,0.0394,0.0398,0.0342,0.0341,0.0341,0.034,0,0,0.0495,0.0472,0.0476,0.0471,0.0456,0.0456,0.0461,0.0456,0.0457,0.0449,0.0453,0.0452,0.0439,0.0435,0.0421,0.0428,0.0454,0.0412,0.0412,0.0421,0.0475,0.0486,0.0491,0.0443,0.0444,0.0444,0.0476,0,0.0527,0.0534,0.0516,0.0528,0.0529,0.0504,0.0509,0.05,0.0489,0.0489,0.0477,0.0477,0.0459,0.0456,0.0461,0.045,0.0464,0.0447,0.0448,0.0448,0.0452,0.0497,0.0509,0.0539,0.0479,0.048,0.0481,0,0.0566,0.056,0.0572,0.0556,0.0556,0.056,0.0554,0.0553,0.0543,0.0535,0.053,0.0514,0.0518,0.0499,0.0505,0.0493,0.0492,0.0486,0.0487,0.0487,0.0467,0.0499,0.0548,0.0553,0.0486,0.0486,0.0486,0,0.0607,0.0602,0.0608,0.0605,0.0586,0.059,0.0582,0.0571,0.0569,0.0563,0.0562,0.0557,0.0555,0.0551,0.0535,0.0522,0.0542,0.0522,0.0536,0.0537,0.0543,0.0543,0.0593,0.0541,0.054,0.054,0.054,0,0.0645,0.0654,0.0627,0.0631,0.0639,0.0618,0.0627,0.0617,0.0608,0.061,0.0588,0.059,0.0568,0.0568,0.0554,0.0561,0.056,0.0554,0.0551,0.0556,0.0557,0.0556,0.0554,0.0542,0.0541,0.0541,0.0541,0,0.0693,0.0675,0.0681,0.0663,0.0658,0.0665,0.065,0.0653,0.064,0.0643,0.0643,0.0623,0.0622,0.0605,0.06,0.0591,0.0603,0.0596,0.0607,0.0605,0.062,0.0619,0.0673,0.0679,0.0622,0.0622,0.0623,0,0.072,0.0725,0.0707,0.0707,0.07,0.07,0.0697,0.0676,0.0675,0.0663,0.0668,0.0665,0.0661,0.066,0.0646,0.0642,0.0635,0.0654,0.0634,0.064,0.0636,0.0636,0.0637,0.0658,0.0659,0.066,0.066,0,0.0768,0.0759,0.0756,0.075,0.0747,0.0742,0.0735,0.0735,0.0712,0.0712,0.071,0.0707,0.0702,0.0699,0.0692,0.0685,0.0669,0.0666,0.0669,0.0676,0.0683,0.068,0.0619,0.0665,0.0665,0.0664,0.0664,0.0664,0.0806,0.081,0.0798,0.0796,0.0788,0.0782,0.0784,0.0771,0.0769,0.0763,0.075,0.0751,0.074,0.0729,0.0723,0.0723,0.0714,0.0718,0.072,0.0721,0.0725,0.0682,0.0722,0.0722,0.0722,0.0721,0.0721,0,0.0855,0.0845,0.0843,0.0833,0.0831,0.0815,0.0807,0.0806,0.0806,0.0798,0.0794,0.0792,0.0789,0.0775,0.077,0.0773,0.0766,0.0773,0.0773,0.0771,0.0733,0.0731,0.0779,0.0779,0.0779,0.0779,0.0779,0.0779,0.0879,0.0885,0.0874,0.0876,0.0867,0.0866,0.0863,0.0857,0.085,0.0848,0.0846,0.0836,0.0825,0.0819,0.0816,0.0811,0.0811,0.0821,0.0814,0.0779,0.0774,0.0769,0.0767,0.0821,0.0821,0.0852,0.0853,0.0853]},{"header":{"parameterUnit":"m.s-1","parameterCategory":1,"la1":30.2991,"la2":30.254,"lo1":-89.0895,"lo2":-89.0444,"dy":0.0017,"dx":0.0017,"nx":28,"ny":28,"refTime":"2026-02-18T03:00:00:Z","depth":0,"parameterNumber":3,"parameterNumberName":"V-component_of_WINDS"},"data":[0,0,0,0,0,0,0,0,0,0,0,0,0,0,0,0,0,0,0,0,0,0,0,0,0,0,0,0,0,0,0,0,0,0,0,0,0,0,0,0,0,0,0,0,0,0,0,0,0,0,0,0,0,0,0,0,0,0,3.6238,3.6238,0,3.6305,3.6305,3.6306,3.6291,3.629,3.6289,3.6287,3.6355,3.6358,3.636,0,0,0,0,0,0,0,0,0,0,0,0,0,3.6095,3.6098,3.6238,3.6238,3.6239,3.6305,3.6305,3.6306,3.6291,3.629,3.6288,3.6287,3.6354,3.6357,3.6361,0,0,0,0,0,0,0,0,0,0,0,0,0,3.6159,3.6099,3.6237,3.624,3.6241,3.6304,3.6306,3.6307,3.6292,3.629,3.6288,3.6286,3.6353,3.6357,3.6361,3.6427,0,0,3.6375,3.6377,0,0,0,0,0,0,0,0,3.6156,3.6164,3.6239,3.624,3.6241,3.6288,3.628,3.6347,3.6292,3.6272,3.6287,3.6285,3.6334,3.634,3.6356,3.643,3.6433,3.6375,3.6378,3.638,3.6381,0,0,0,0,0,0,0,3.6151,3.6161,3.6264,3.624,3.6241,3.6237,3.6244,3.6293,3.6313,3.6274,3.6273,3.6281,3.6334,3.6352,3.6358,3.6434,3.6375,3.6379,3.6382,3.6384,3.6564,3.6566,0,0,0,0,0,0,3.6146,3.6158,3.6262,3.6266,3.6193,3.6241,3.6249,3.6274,3.6312,3.6316,3.6283,3.628,3.6345,3.6353,3.636,3.644,3.638,3.6384,3.6387,3.6562,3.6565,3.6567,0,0,0,0,0,0,3.6143,3.6155,3.6259,3.6212,3.6225,3.6246,3.6274,3.6277,3.6295,3.6319,3.6322,3.6298,3.6344,3.6354,3.641,3.6442,3.6386,3.639,3.656,3.6563,3.6566,3.66,0,0,0,0,0,0,3.6139,3.6154,3.618,3.6213,3.6227,3.6309,3.6276,3.6279,3.6303,3.63,3.6334,3.6338,3.6343,3.6404,3.6415,3.6447,3.6394,3.6557,3.6561,3.6565,3.6596,3.6604,3.661,0,0,0,0,0,3.6134,3.6186,3.6181,3.6194,3.626,3.6311,3.6319,3.6326,3.6305,3.6331,3.6346,3.6336,3.6436,3.641,3.6422,3.6456,3.6555,3.656,3.6565,3.6593,3.6602,3.661,0,0,0,0,0,0,3.6156,3.619,3.6185,3.625,3.6278,3.6308,3.6341,3.6335,3.6369,3.6365,3.6371,3.6379,3.6436,3.6452,3.6421,3.6522,3.6493,3.65,3.651,3.6519,3.6526,3.6522,3.6397,0,0,0,0,0,3.6169,3.6208,3.6235,3.6289,3.6304,3.632,3.6342,3.6345,3.6374,3.6385,3.6405,3.6433,3.6471,3.6495,3.6531,3.6597,3.6605,3.6627,3.6634,3.664,3.6647,3.6683,3.6694,3.6583,3.6583,3.6583,0,0,3.6195,3.6218,3.6243,3.6295,3.6316,3.6357,3.633,3.6373,3.6404,3.6392,3.6447,3.6462,3.6494,3.6555,3.6584,3.657,3.6679,3.6646,3.665,3.6654,3.6689,3.67,3.6709,3.6586,3.6586,3.6585,0,0,3.6263,3.6284,3.6332,3.6355,3.6389,3.6399,3.641,3.6442,3.6452,3.6507,3.65,3.6535,3.66,3.6623,3.6643,3.672,3.6712,3.6731,3.677,3.6805,3.6814,3.6822,3.685,3.686,3.6738,3.6738,3.6738,0,3.6291,3.6352,3.6358,3.6403,3.6426,3.6417,3.6466,3.6487,3.6531,3.6547,3.6531,3.6612,3.6633,3.67,3.6719,3.6735,3.6749,3.6728,3.6812,3.682,3.6828,3.6855,3.6865,3.674,3.674,3.674,3.6739,0,3.6386,3.6428,3.6462,3.6506,3.6532,3.6579,3.6591,3.6618,3.6617,3.6629,3.6686,3.671,3.6752,3.6767,3.6767,3.6835,3.6826,3.6811,3.6782,3.684,3.6866,3.6876,3.6743,3.6742,3.6742,3.6741,0,0,3.6471,3.6516,3.6529,3.6549,3.6585,3.6618,3.6663,3.6704,3.6727,3.6757,3.6796,3.6851,3.6838,3.6861,3.6863,3.6894,3.6955,3.6876,3.6877,3.6891,3.7032,3.7044,3.7056,3.695,3.6952,3.6953,3.703,0,3.6544,3.6625,3.6632,3.6705,3.6745,3.6737,3.6777,3.6803,3.6815,3.685,3.6863,3.6903,3.6882,3.6896,3.6926,3.6941,3.6984,3.6936,3.6986,3.6988,3.698,3.7069,3.7082,3.7153,3.704,3.7042,3.7043,0,3.664,3.6673,3.6751,3.6783,3.6799,3.6835,3.6873,3.6907,3.6936,3.6943,3.6969,3.6967,3.7014,3.6983,3.7047,3.7015,3.7035,3.7046,3.7049,3.7055,3.702,3.7079,3.7176,3.7187,3.7058,3.7057,3.7056,0,3.6696,3.676,3.6815,3.6832,3.687,3.6895,3.6912,3.694,3.6964,3.6997,3.7013,3.705,3.7071,3.71,3.7108,3.7085,3.7173,3.7143,3.718,3.718,3.7201,3.7199,3.7304,3.7212,3.7212,3.7211,3.7211,0,3.6777,3.6825,3.6841,3.6875,3.6929,3.6935,3.6988,3.7003,3.7028,3.7065,3.7059,3.7094,3.7102,3.7138,3.7144,3.7197,3.7206,3.7213,3.7214,3.7214,3.7214,3.7229,3.7225,3.7214,3.7214,3.7213,3.7213,0,3.6849,3.6862,3.6922,3.6952,3.6961,3.6999,3.7026,3.7058,3.7069,3.7116,3.7127,3.7145,3.7187,3.7197,3.7247,3.7251,3.7314,3.731,3.7305,3.7305,3.7343,3.734,3.7462,3.7478,3.7374,3.7375,3.7376,0,3.6901,3.6938,3.6973,3.6997,3.7016,3.7055,3.708,3.7087,3.7113,3.715,3.7178,3.7219,3.7253,3.732,3.7337,3.7375,3.7373,3.7413,3.7379,3.7378,3.7375,3.7373,3.7377,3.742,3.7421,3.7422,3.7423,0,3.6992,3.6997,3.7033,3.7072,3.7102,3.7133,3.7162,3.7182,3.7193,3.7223,3.7266,3.7292,3.7343,3.7385,3.7423,3.744,3.7433,3.7433,3.7444,3.7445,3.7441,3.7445,3.7324,3.7431,3.743,3.7429,3.7429,3.7428,3.7057,3.709,3.712,3.716,3.7183,3.7211,3.7243,3.7259,3.7295,3.7338,3.7339,3.7387,3.7415,3.7466,3.7485,3.7522,3.7509,3.7525,3.7529,3.7533,3.7537,3.7434,3.7528,3.7528,3.7528,3.7528,3.7528,0,3.7149,3.7167,3.7205,3.7247,3.7279,3.727,3.7302,3.7329,3.7371,3.7399,3.7432,3.7482,3.7522,3.7542,3.7581,3.7607,3.7605,3.7617,3.7616,3.762,3.7545,3.7533,3.7618,3.7618,3.7618,3.7618,3.7618,3.7618,3.72,3.7256,3.7264,3.7331,3.7349,3.7396,3.7415,3.744,3.7462,3.7518,3.7552,3.7564,3.7589,3.763,3.7666,3.7671,3.7686,3.77,3.7704,3.7634,3.7625,3.7616,3.7604,3.7703,3.7704,3.7776,3.7776,3.7777]}]]